Wetterdaten: aktuell Donnerstag, 23.11.2017 18:28
Datum Zeit Innentemp. Temp Boden Temp Norden Innenfeuchte Licht Bodenfeuchte Feuchte Nord Luftdruck Regenmenge Windstrke Windrichtung Windrichtung Sonne Zeit Windchill
23.11.2017 18:28 20,0 C 11,1 C 13,5 C 54 % 0 % 87 % 75 % 1013 hPa 0,0 l/m 0,4 km/h SO 145 0 min 13,5 C
23.11.2017 18:23 20,0 C 11,1 C 13,5 C 54 % 0 % 87 % 73 % 1013 hPa 0,0 l/m 9,6 km/h S-SO45 155 0 min 13,5 C
23.11.2017 18:18 20,0 C 11,0 C 13,5 C 54 % 0 % 87 % 73 % 1013 hPa 0,0 l/m 11,8 km/h S-SO67.5 165 0 min 13,5 C
23.11.2017 18:13 19,9 C 11,0 C 13,5 C 54 % 0 % 86 % 73 % 1013 hPa 0,0 l/m 8,9 km/h S-SO45 150 0 min 13,5 C
23.11.2017 18:08 19,9 C 11,0 C 13,5 C 54 % 0 % 87 % 73 % 1013 hPa 0,0 l/m 10,4 km/h S-SO45 165 0 min 13,5 C
23.11.2017 18:03 19,8 C 11,0 C 13,5 C 54 % 0 % 87 % 73 % 1013 hPa 0,0 l/m 8,2 km/h S-SO45 165 0 min 13,5 C
23.11.2017 17:58 19,9 C 11,0 C 13,5 C 54 % 0 % 87 % 77 % 1013 hPa 0,0 l/m 12,1 km/h S45 185 0 min 13,5 C
23.11.2017 17:53 19,8 C 11,0 C 13,5 C 54 % 0 % 87 % 77 % 1013 hPa 0,0 l/m 14,0 km/h S45 170 0 min 13,5 C
23.11.2017 17:48 19,8 C 10,9 C 13,5 C 54 % 0 % 88 % 77 % 1012 hPa 0,0 l/m 12,9 km/h S45 170 0 min 13,5 C
23.11.2017 17:43 19,8 C 10,9 C 13,5 C 54 % 0 % 88 % 77 % 1012 hPa 0,0 l/m 10,2 km/h S67.5 185 0 min 13,5 C
23.11.2017 17:38 19,8 C 10,9 C 13,5 C 54 % 0 % 87 % 77 % 1012 hPa 0,0 l/m 0,4 km/h S-SW67.5 200 0 min 13,5 C
23.11.2017 17:33 19,8 C 10,8 C 13,5 C 54 % 0 % 88 % 77 % 1012 hPa 0,0 l/m 11,9 km/h S67.5 170 0 min 13,5 C
23.11.2017 17:28 19,8 C 10,9 C 13,5 C 54 % 0 % 88 % 77 % 1012 hPa 0,0 l/m 2,5 km/h S67.5 170 0 min 13,5 C
23.11.2017 17:23 19,9 C 10,8 C 13,6 C 54 % 0 % 88 % 77 % 1012 hPa 0,0 l/m 13,0 km/h S-SO45 165 0 min 13,6 C
23.11.2017 17:18 19,9 C 10,8 C 13,6 C 54 % 0 % 88 % 77 % 1012 hPa 0,0 l/m 6,5 km/h S-SO22.5 155 0 min 13,6 C
23.11.2017 17:13 19,9 C 10,9 C 13,7 C 54 % 0 % 88 % 78 % 1012 hPa 0,0 l/m 1,0 km/h S-SO45 155 0 min 13,7 C
23.11.2017 17:08 19,9 C 10,9 C 13,8 C 54 % 0 % 88 % 78 % 1012 hPa 0,0 l/m 0,0 km/h S-SO 160 0 min 13,8 C
23.11.2017 17:03 19,9 C 11,1 C 13,9 C 54 % 0 % 88 % 77 % 1012 hPa 0,0 l/m 0,0 km/h S22.5 175 0 min 13,9 C
23.11.2017 16:58 19,9 C 11,3 C 14,0 C 54 % 0 % 87 % 76 % 1012 hPa 0,0 l/m 5,6 km/h S-SO22.5 160 0 min 14,0 C
23.11.2017 16:53 19,9 C 11,3 C 14,0 C 54 % 0 % 88 % 76 % 1012 hPa 0,0 l/m 8,1 km/h S-SO22.5 160 0 min 14,0 C
23.11.2017 16:48 19,9 C 11,2 C 14,1 C 54 % 0 % 88 % 77 % 1012 hPa 0,0 l/m 9,1 km/h S-SO45 160 0 min 14,1 C
23.11.2017 16:43 19,9 C 11,3 C 14,1 C 54 % 1 % 88 % 77 % 1012 hPa 0,0 l/m 8,9 km/h S22.5 170 0 min 14,1 C
23.11.2017 16:38 20,0 C 11,3 C 14,4 C 54 % 1 % 87 % 76 % 1012 hPa 0,0 l/m 8,9 km/h S22.5 170 0 min 14,4 C
23.11.2017 16:33 20,0 C 11,4 C 14,4 C 54 % 1 % 87 % 76 % 1012 hPa 0,0 l/m 1,4 km/h S22.5 170 0 min 14,4 C
23.11.2017 16:28 20,0 C 11,4 C 14,4 C 54 % 2 % 87 % 76 % 1012 hPa 0,0 l/m 8,6 km/h S-SO45 160 0 min 14,4 C
23.11.2017 16:23 20,0 C 11,5 C 14,4 C 54 % 6 % 87 % 76 % 1012 hPa 0,0 l/m 9,7 km/h S-SO45 165 0 min 14,4 C
23.11.2017 16:18 20,0 C 11,5 C 14,5 C 54 % 6 % 86 % 76 % 1012 hPa 0,0 l/m 0,7 km/h S-SW22.5 195 0 min 14,5 C
23.11.2017 16:13 20,0 C 11,7 C 14,7 C 54 % 9 % 87 % 73 % 1012 hPa 0,0 l/m 8,9 km/h S-SW22.5 200 0 min 14,7 C
23.11.2017 16:08 20,0 C 11,8 C 14,7 C 54 % 14 % 87 % 73 % 1012 hPa 0,0 l/m 8,0 km/h S-SW22.5 205 0 min 14,7 C
23.11.2017 16:03 20,0 C 11,8 C 14,7 C 54 % 16 % 86 % 72 % 1012 hPa 0,0 l/m 11,6 km/h S-SW67.5 195 0 min 14,7 C
23.11.2017 15:58 20,0 C 11,9 C 14,7 C 54 % 20 % 86 % 72 % 1012 hPa 0,0 l/m 13,9 km/h S45 190 0 min 14,7 C
23.11.2017 15:53 20,0 C 11,8 C 14,7 C 54 % 24 % 87 % 72 % 1011 hPa 0,0 l/m 8,0 km/h S-SW22.5 200 0 min 14,7 C
23.11.2017 15:48 20,0 C 11,8 C 14,7 C 54 % 48 % 87 % 72 % 1011 hPa 0,0 l/m 11,9 km/h S45 190 0 min 14,7 C
23.11.2017 15:43 20,1 C 11,8 C 14,7 C 54 % 57 % 88 % 74 % 1011 hPa 0,0 l/m 16,1 km/h S45 190 0 min 14,7 C
23.11.2017 15:38 20,1 C 12,1 C 14,7 C 54 % 60 % 87 % 74 % 1011 hPa 0,0 l/m 4,1 km/h S-SO 160 0 min 14,7 C
23.11.2017 15:33 20,1 C 12,1 C 14,7 C 54 % 62 % 87 % 74 % 1011 hPa 0,0 l/m 11,3 km/h S-SO45 160 0 min 14,7 C
23.11.2017 15:28 20,1 C 12,0 C 14,8 C 54 % 63 % 87 % 73 % 1011 hPa 0,0 l/m 11,1 km/h S45 170 0 min 14,8 C
23.11.2017 15:23 20,1 C 12,1 C 14,8 C 54 % 66 % 87 % 71 % 1011 hPa 0,0 l/m 18,6 km/h S-SO22.5 165 0 min 14,8 C
23.11.2017 15:18 20,1 C 12,1 C 14,8 C 54 % 67 % 87 % 71 % 1011 hPa 0,0 l/m 16,3 km/h S-SO45 160 0 min 14,8 C
23.11.2017 15:13 20,1 C 12,2 C 14,8 C 54 % 70 % 86 % 71 % 1011 hPa 0,0 l/m 11,1 km/h S22.5 175 0 min 14,8 C
23.11.2017 15:08 20,1 C 12,2 C 14,8 C 54 % 70 % 86 % 71 % 1011 hPa 0,0 l/m 14,2 km/h S45 170 0 min 14,8 C
23.11.2017 15:04 20,1 C 12,2 C 14,8 C 54 % 71 % 88 % 71 % 1011 hPa 0,0 l/m 14,0 km/h S45 180 0 min 14,8 C
23.11.2017 14:58 20,1 C 12,1 C 14,7 C 54 % 68 % 87 % 74 % 1011 hPa 0,0 l/m 9,4 km/h SW45 215 0 min 14,7 C
23.11.2017 14:53 20,1 C 12,0 C 14,7 C 54 % 70 % 87 % 74 % 1011 hPa 0,0 l/m 11,9 km/h S45 180 0 min 14,7 C
23.11.2017 14:48 20,2 C 12,1 C 14,6 C 54 % 73 % 88 % 75 % 1011 hPa 0,0 l/m 10,7 km/h S45 190 5 min 14,6 C
23.11.2017 14:43 20,1 C 12,1 C 14,5 C 54 % 70 % 88 % 77 % 1011 hPa 0,0 l/m 11,0 km/h S22.5 170 0 min 14,5 C
23.11.2017 14:38 20,1 C 11,9 C 14,4 C 54 % 75 % 88 % 76 % 1011 hPa 0,0 l/m 12,9 km/h S67.5 190 5 min 14,4 C
23.11.2017 14:33 20,2 C 11,9 C 14,3 C 54 % 76 % 88 % 76 % 1011 hPa 0,0 l/m 12,9 km/h S45 175 5 min 14,3 C
23.11.2017 14:28 20,2 C 11,9 C 14,2 C 54 % 74 % 88 % 77 % 1011 hPa 0,0 l/m 15,2 km/h S67.5 170 5 min 14,2 C
23.11.2017 14:23 20,2 C 11,8 C 14,2 C 54 % 74 % 88 % 75 % 1011 hPa 0,0 l/m 14,1 km/h S45 175 5 min 14,2 C
23.11.2017 14:18 20,2 C 11,7 C 14,1 C 54 % 68 % 88 % 77 % 1011 hPa 0,0 l/m 9,9 km/h S22.5 170 0 min 14,1 C
23.11.2017 14:13 20,2 C 11,6 C 14,1 C 54 % 71 % 88 % 76 % 1011 hPa 0,0 l/m 13,4 km/h S67.5 185 0 min 14,1 C
23.11.2017 14:08 20,2 C 11,6 C 13,9 C 54 % 78 % 88 % 77 % 1011 hPa 0,0 l/m 15,0 km/h S45 170 5 min 13,9 C
23.11.2017 14:03 20,1 C 11,6 C 13,9 C 54 % 78 % 88 % 78 % 1011 hPa 0,0 l/m 10,2 km/h S-SO45 165 5 min 13,9 C
23.11.2017 13:58 20,2 C 11,5 C 13,7 C 53 % 69 % 89 % 76 % 1011 hPa 0,0 l/m 12,8 km/h S67.5 180 0 min 13,7 C
23.11.2017 13:53 20,2 C 11,4 C 13,6 C 53 % 66 % 88 % 77 % 1011 hPa 0,0 l/m 16,3 km/h S22.5 190 0 min 13,6 C
23.11.2017 13:48 20,2 C 11,3 C 13,5 C 53 % 61 % 89 % 78 % 1011 hPa 0,0 l/m 11,9 km/h S45 170 0 min 13,5 C
23.11.2017 13:43 20,2 C 11,1 C 13,4 C 53 % 68 % 89 % 83 % 1011 hPa 0,0 l/m 11,6 km/h S67.5 185 0 min 13,4 C
23.11.2017 13:38 20,2 C 11,1 C 13,3 C 53 % 67 % 89 % 82 % 1011 hPa 0,0 l/m 14,6 km/h S45 180 0 min 13,3 C
23.11.2017 13:33 20,2 C 11,3 C 13,3 C 53 % 59 % 89 % 83 % 1011 hPa 0,0 l/m 14,3 km/h S-SW67.5 210 0 min 13,3 C
23.11.2017 13:28 20,2 C 11,1 C 13,0 C 53 % 46 % 90 % 85 % 1011 hPa 0,0 l/m 10,7 km/h S-SW67.5 195 0 min 13,0 C
23.11.2017 13:23 20,2 C 11,0 C 13,0 C 53 % 45 % 90 % 85 % 1011 hPa 0,0 l/m 17,9 km/h S-SW67.5 195 0 min 13,0 C
23.11.2017 13:18 20,2 C 10,9 C 13,0 C 53 % 46 % 90 % 89 % 1011 hPa 0,0 l/m 15,3 km/h S-SO67.5 165 0 min 13,0 C
23.11.2017 13:13 20,1 C 10,9 C 12,7 C 53 % 49 % 91 % 90 % 1011 hPa 0,0 l/m 13,2 km/h S-SO45 165 0 min 12,7 C
23.11.2017 13:08 20,2 C 10,9 C 12,5 C 53 % 54 % 91 % 93 % 1011 hPa 0,0 l/m 9,1 km/h S67.5 180 0 min 12,5 C
23.11.2017 13:03 20,2 C 10,8 C 12,5 C 53 % 56 % 92 % 94 % 1011 hPa 0,0 l/m 16,6 km/h S-SW67.5 200 0 min 12,5 C
23.11.2017 12:58 20,1 C 10,6 C 12,0 C 53 % 58 % 92 % 96 % 1011 hPa 0,0 l/m 15,5 km/h S67.5 185 0 min 12,0 C
23.11.2017 12:53 20,2 C 10,4 C 11,8 C 53 % 74 % 92 % 97 % 1011 hPa 0,0 l/m 14,6 km/h S45 170 5 min 11,8 C
23.11.2017 12:48 20,2 C 10,1 C 11,6 C 53 % 85 % 93 % 98 % 1011 hPa 0,0 l/m 21,0 km/h S-SO45 165 5 min 11,6 C
23.11.2017 12:43 20,1 C 9,7 C 11,1 C 53 % 85 % 93 % 99 % 1011 hPa 0,0 l/m 18,0 km/h S67.5 170 5 min 11,1 C
23.11.2017 12:38 20,1 C 9,3 C 10,6 C 53 % 77 % 93 % 99 % 1011 hPa 0,0 l/m 17,4 km/h S67.5 185 5 min 10,6 C
23.11.2017 12:33 20,1 C 9,1 C 10,3 C 53 % 79 % 94 % 99 % 1011 hPa 0,0 l/m 10,1 km/h O 85 5 min 10,3 C
23.11.2017 12:28 20,0 C 9,1 C 10,3 C 53 % 84 % 94 % 99 % 1011 hPa 0,0 l/m 0,0 km/h N 360 5 min 10,3 C
23.11.2017 12:23 20,0 C 8,9 C 10,0 C 53 % 85 % 94 % 99 % 1011 hPa 0,0 l/m 0,0 km/h N 360 5 min 10,0 C
23.11.2017 12:18 20,0 C 8,5 C 9,8 C 53 % 83 % 94 % 99 % 1011 hPa 0,0 l/m 0,0 km/h N 360 5 min 9,8 C
23.11.2017 12:13 20,0 C 8,3 C 9,6 C 54 % 82 % 94 % 99 % 1011 hPa 0,0 l/m 3,3 km/h N67.5 350 5 min 9,6 C
23.11.2017 12:08 20,0 C 8,3 C 9,4 C 54 % 53 % 94 % 99 % 1011 hPa 0,0 l/m 0,0 km/h W-SW 250 0 min 9,4 C
23.11.2017 12:03 20,0 C 8,2 C 9,2 C 54 % 43 % 95 % 99 % 1011 hPa 0,0 l/m 0,0 km/h W-SW 255 0 min 9,2 C
23.11.2017 11:58 19,9 C 8,1 C 9,1 C 54 % 41 % 95 % 99 % 1011 hPa 0,0 l/m 4,3 km/h W22.5 260 0 min 9,1 C
23.11.2017 11:53 20,0 C 7,8 C 8,8 C 54 % 41 % 95 % 99 % 1011 hPa 0,0 l/m 2,5 km/h W22.5 260 0 min 8,8 C
23.11.2017 11:48 20,0 C 7,8 C 8,2 C 54 % 42 % 95 % 99 % 1011 hPa 0,0 l/m 3,6 km/h W45 270 0 min 8,2 C
23.11.2017 11:43 20,0 C 7,8 C 8,2 C 54 % 41 % 95 % 99 % 1011 hPa 0,0 l/m 0,0 km/h S 190 0 min 8,2 C
23.11.2017 11:38 20,0 C 7,5 C 8,2 C 54 % 42 % 95 % 99 % 1011 hPa 0,0 l/m 0,1 km/h S 190 0 min 8,2 C
23.11.2017 11:33 20,0 C 7,5 C 8,0 C 54 % 49 % 95 % 99 % 1011 hPa 0,0 l/m 0,0 km/h SW 235 0 min 8,0 C
23.11.2017 11:28 20,0 C 7,1 C 7,7 C 54 % 65 % 95 % 99 % 1011 hPa 0,0 l/m 0,7 km/h W-SW45 255 0 min 7,7 C
23.11.2017 11:23 20,0 C 7,0 C 7,6 C 54 % 62 % 95 % 99 % 1011 hPa 0,0 l/m 0,1 km/h N45 350 0 min 7,6 C
23.11.2017 11:18 20,0 C 6,7 C 7,3 C 54 % 54 % 95 % 99 % 1011 hPa 0,0 l/m 0,0 km/h O-NO 65 0 min 7,3 C
23.11.2017 11:13 20,0 C 6,7 C 7,1 C 54 % 50 % 95 % 99 % 1011 hPa 0,0 l/m 0,0 km/h O-NO 65 0 min 7,1 C
23.11.2017 11:08 20,0 C 6,6 C 6,9 C 54 % 47 % 94 % 99 % 1011 hPa 0,0 l/m 0,0 km/h O-NO 65 0 min 6,9 C
23.11.2017 11:03 20,0 C 6,6 C 6,7 C 54 % 43 % 94 % 99 % 1011 hPa 0,0 l/m 3,9 km/h O-NO 65 0 min 6,7 C
23.11.2017 10:58 20,0 C 6,4 C 6,7 C 54 % 39 % 93 % 99 % 1011 hPa 0,0 l/m 5,2 km/h O-NO 65 0 min 5,9 C
23.11.2017 10:53 20,0 C 6,3 C 6,5 C 54 % 39 % 93 % 99 % 1011 hPa 0,0 l/m 6,9 km/h O-NO 60 0 min 5,2 C
23.11.2017 10:48 20,0 C 6,2 C 6,4 C 54 % 40 % 93 % 99 % 1011 hPa 0,0 l/m 5,9 km/h NO 35 0 min 5,4 C
23.11.2017 10:43 20,0 C 6,0 C 6,2 C 54 % 41 % 94 % 99 % 1011 hPa 0,0 l/m 6,2 km/h NO22.5 55 0 min 5,0 C
23.11.2017 10:38 20,1 C 5,9 C 6,1 C 54 % 41 % 94 % 99 % 1011 hPa 0,0 l/m 7,2 km/h O-NO45 70 0 min 4,6 C
23.11.2017 10:33 20,1 C 5,8 C 6,0 C 54 % 43 % 94 % 99 % 1011 hPa 0,0 l/m 8,5 km/h O-NO22.5 60 0 min 4,2 C
23.11.2017 10:28 20,1 C 5,7 C 5,8 C 55 % 44 % 95 % 99 % 1011 hPa 0,0 l/m 7,5 km/h NO22.5 55 0 min 4,2 C
23.11.2017 10:23 20,1 C 5,5 C 5,6 C 55 % 44 % 95 % 99 % 1011 hPa 0,0 l/m 4,6 km/h O 80 0 min 4,9 C
23.11.2017 10:18 20,1 C 5,5 C 5,5 C 55 % 43 % 95 % 99 % 1011 hPa 0,0 l/m 3,2 km/h O 80 0 min 5,5 C
23.11.2017 10:13 20,1 C 5,4 C 5,3 C 55 % 45 % 95 % 99 % 1011 hPa 0,0 l/m 3,2 km/h O 80 0 min 5,3 C
23.11.2017 10:08 20,2 C 5,3 C 5,2 C 56 % 45 % 94 % 99 % 1011 hPa 0,0 l/m 4,6 km/h O 90 0 min 4,5 C
23.11.2017 10:03 20,2 C 5,2 C 5,0 C 56 % 48 % 94 % 99 % 1011 hPa 0,0 l/m 6,1 km/h O-NO22.5 65 0 min 3,7 C
23.11.2017 09:58 20,2 C 5,0 C 5,0 C 56 % 42 % 95 % 99 % 1011 hPa 0,0 l/m 6,6 km/h O-NO22.5 70 0 min 3,5 C
23.11.2017 09:53 20,2 C 4,8 C 4,8 C 56 % 44 % 95 % 99 % 1011 hPa 0,0 l/m 7,5 km/h NO22.5 55 0 min 3,0 C
23.11.2017 09:48 20,2 C 4,7 C 4,6 C 56 % 43 % 95 % 99 % 1011 hPa 0,0 l/m 8,6 km/h O-NO22.5 60 0 min 2,5 C
23.11.2017 09:43 20,2 C 4,6 C 4,5 C 56 % 45 % 95 % 99 % 1011 hPa 0,0 l/m 6,7 km/h NO45 45 0 min 2,9 C
23.11.2017 09:38 20,2 C 4,5 C 4,3 C 56 % 56 % 95 % 99 % 1011 hPa 0,0 l/m 0,3 km/h O-NO 70 0 min 4,3 C
23.11.2017 09:33 20,2 C 4,3 C 4,1 C 56 % 50 % 95 % 99 % 1011 hPa 0,0 l/m 0,3 km/h O-NO 70 0 min 4,1 C
23.11.2017 09:28 20,3 C 4,1 C 3,9 C 56 % 51 % 95 % 99 % 1011 hPa 0,0 l/m 6,7 km/h O-NO22.5 70 0 min 2,2 C
23.11.2017 09:23 20,3 C 4,1 C 3,7 C 56 % 38 % 95 % 99 % 1011 hPa 0,0 l/m 5,9 km/h NO 55 0 min 2,3 C
23.11.2017 09:18 20,3 C 3,8 C 3,6 C 56 % 37 % 95 % 99 % 1011 hPa 0,0 l/m 5,5 km/h NO 55 0 min 2,3 C
23.11.2017 09:13 20,3 C 3,8 C 3,4 C 56 % 36 % 95 % 99 % 1011 hPa 0,0 l/m 5,4 km/h NO 55 0 min 2,1 C
23.11.2017 09:09 20,3 C 3,6 C 3,4 C 56 % 36 % 95 % 99 % 1011 hPa 0,0 l/m 6,3 km/h NO 55 0 min 1,8 C
23.11.2017 09:03 20,3 C 3,6 C 3,2 C 56 % 33 % 95 % 99 % 1010 hPa 0,0 l/m 6,3 km/h NO 55 0 min 1,5 C
23.11.2017 08:58 20,3 C 3,4 C 3,1 C 56 % 34 % 95 % 99 % 1010 hPa 0,0 l/m 7,3 km/h NO 55 0 min 1,1 C
23.11.2017 08:53 20,3 C 3,3 C 2,8 C 56 % 38 % 94 % 99 % 1011 hPa 0,0 l/m 6,7 km/h O-NO22.5 60 0 min 1,0 C
23.11.2017 08:48 20,3 C 2,9 C 2,8 C 56 % 54 % 94 % 99 % 1010 hPa 0,0 l/m 7,4 km/h O-NO 60 0 min 0,7 C
23.11.2017 08:43 20,4 C 2,9 C 2,6 C 56 % 47 % 94 % 99 % 1010 hPa 0,0 l/m 0,6 km/h NO 50 0 min 2,6 C
23.11.2017 08:38 20,4 C 2,7 C 2,4 C 56 % 39 % 94 % 99 % 1010 hPa 0,0 l/m 0,1 km/h O-NO 65 0 min 2,4 C
23.11.2017 08:33 20,4 C 2,6 C 2,4 C 56 % 35 % 94 % 99 % 1010 hPa 0,0 l/m 0,3 km/h O-NO 65 0 min 2,4 C
23.11.2017 08:28 20,4 C 2,6 C 2,3 C 56 % 42 % 94 % 99 % 1010 hPa 0,0 l/m 0,0 km/h O-NO 60 0 min 2,3 C
23.11.2017 08:23 20,4 C 2,6 C 2,3 C 56 % 27 % 95 % 99 % 1010 hPa 0,0 l/m 0,3 km/h NO22.5 50 0 min 2,3 C
23.11.2017 08:18 20,4 C 2,5 C 2,3 C 56 % 26 % 95 % 99 % 1010 hPa 0,0 l/m 0,0 km/h N-NO 30 0 min 2,3 C
23.11.2017 08:13 20,4 C 2,5 C 2,2 C 56 % 21 % 95 % 99 % 1010 hPa 0,0 l/m 4,3 km/h O-NO22.5 65 0 min 2,2 C
23.11.2017 08:08 20,4 C 2,4 C 2,2 C 56 % 19 % 95 % 99 % 1010 hPa 0,0 l/m 0,0 km/h O 90 0 min 2,2 C
23.11.2017 08:03 20,4 C 2,4 C 2,3 C 56 % 14 % 95 % 99 % 1010 hPa 0,0 l/m 0,0 km/h O 90 0 min 2,3 C
23.11.2017 07:58 20,4 C 2,5 C 2,3 C 56 % 10 % 95 % 99 % 1010 hPa 0,0 l/m 0,0 km/h O 90 0 min 2,3 C
23.11.2017 07:53 20,5 C 2,6 C 2,4 C 56 % 9 % 95 % 99 % 1010 hPa 0,0 l/m 0,0 km/h O 90 0 min 2,4 C
23.11.2017 07:48 20,5 C 2,7 C 2,6 C 56 % 6 % 95 % 99 % 1010 hPa 0,0 l/m 0,0 km/h O 90 0 min 2,6 C
23.11.2017 07:43 20,5 C 2,9 C 2,6 C 56 % 5 % 95 % 99 % 1010 hPa 0,0 l/m 0,3 km/h O 90 0 min 2,6 C
23.11.2017 07:38 20,6 C 2,9 C 2,6 C 56 % 3 % 95 % 99 % 1010 hPa 0,0 l/m 3,9 km/h O-NO 65 0 min 2,6 C
23.11.2017 07:33 20,6 C 2,9 C 2,6 C 56 % 1 % 95 % 99 % 1010 hPa 0,0 l/m 6,8 km/h O-NO22.5 60 0 min 0,7 C
23.11.2017 07:28 20,7 C 2,9 C 2,6 C 56 % 1 % 95 % 99 % 1010 hPa 0,0 l/m 4,0 km/h NO 50 0 min 2,6 C
23.11.2017 07:23 20,7 C 2,9 C 2,5 C 56 % 0 % 95 % 99 % 1010 hPa 0,0 l/m 6,9 km/h O-NO22.5 70 0 min 0,5 C
23.11.2017 07:18 20,7 C 2,6 C 2,4 C 56 % 0 % 95 % 99 % 1010 hPa 0,0 l/m 6,3 km/h NO22.5 55 0 min 0,6 C
23.11.2017 07:13 20,7 C 2,6 C 2,3 C 56 % 0 % 95 % 99 % 1010 hPa 0,0 l/m 7,7 km/h O-NO22.5 60 0 min 0,1 C
23.11.2017 07:08 20,8 C 2,6 C 2,3 C 56 % 0 % 94 % 99 % 1010 hPa 0,0 l/m 8,7 km/h O-NO22.5 60 0 min -0,2 C
23.11.2017 07:03 20,8 C 2,6 C 2,3 C 56 % 0 % 94 % 99 % 1010 hPa 0,0 l/m 8,7 km/h NO22.5 50 0 min -0,2 C
23.11.2017 06:58 20,8 C 2,5 C 2,2 C 56 % 0 % 94 % 99 % 1010 hPa 0,0 l/m 8,6 km/h NO22.5 55 0 min -0,3 C
23.11.2017 06:53 20,9 C 2,5 C 2,2 C 56 % 0 % 94 % 99 % 1010 hPa 0,0 l/m 8,6 km/h NO22.5 55 0 min -0,3 C
23.11.2017 06:48 20,9 C 2,5 C 2,1 C 56 % 0 % 94 % 99 % 1010 hPa 0,0 l/m 4,6 km/h N-NO 30 0 min 1,0 C
23.11.2017 06:43 20,9 C 2,4 C 2,0 C 56 % 0 % 94 % 99 % 1010 hPa 0,0 l/m 11,6 km/h O-NO22.5 65 0 min -1,3 C
23.11.2017 06:38 21,0 C 2,3 C 1,9 C 56 % 0 % 94 % 99 % 1010 hPa 0,0 l/m 10,0 km/h NO 55 0 min -1,0 C
23.11.2017 06:33 21,0 C 2,3 C 1,9 C 56 % 0 % 94 % 99 % 1010 hPa 0,0 l/m 6,3 km/h NO 55 0 min 0,0 C
23.11.2017 06:28 21,0 C 2,2 C 1,8 C 56 % 0 % 94 % 99 % 1010 hPa 0,0 l/m 7,5 km/h O-NO22.5 60 0 min -0,5 C
23.11.2017 06:23 21,1 C 2,2 C 1,7 C 56 % 0 % 94 % 99 % 1010 hPa 0,0 l/m 9,4 km/h O-NO 60 0 min -1,1 C
23.11.2017 06:18 21,1 C 2,1 C 1,7 C 56 % 0 % 94 % 99 % 1010 hPa 0,0 l/m 9,4 km/h O-NO 60 0 min -1,1 C
23.11.2017 06:13 21,1 C 2,1 C 1,7 C 56 % 0 % 94 % 99 % 1010 hPa 0,0 l/m 7,8 km/h NO22.5 50 0 min -0,7 C
23.11.2017 06:08 21,1 C 1,8 C 1,6 C 56 % 0 % 94 % 99 % 1010 hPa 0,0 l/m 2,3 km/h N-NO22.5 15 0 min 1,6 C
23.11.2017 06:03 21,1 C 1,8 C 1,5 C 56 % 0 % 94 % 99 % 1010 hPa 0,0 l/m 1,0 km/h W-SW 240 0 min 1,5 C
23.11.2017 05:58 21,2 C 1,8 C 1,4 C 56 % 0 % 94 % 99 % 1010 hPa 0,0 l/m 1,0 km/h W-SW 240 0 min 1,4 C
23.11.2017 05:53 21,1 C 1,8 C 1,4 C 56 % 0 % 94 % 99 % 1010 hPa 0,0 l/m 4,7 km/h W-SW 240 0 min 0,1 C
23.11.2017 05:48 21,2 C 1,9 C 1,5 C 56 % 0 % 94 % 99 % 1010 hPa 0,0 l/m 0,1 km/h W-SW 240 0 min 1,5 C
23.11.2017 05:43 21,2 C 1,9 C 1,5 C 56 % 0 % 94 % 99 % 1010 hPa 0,0 l/m 0,0 km/h W-SW 240 0 min 1,5 C
23.11.2017 05:38 21,2 C 1,9 C 1,6 C 56 % 0 % 94 % 99 % 1010 hPa 0,0 l/m 0,0 km/h W-SW 240 0 min 1,6 C
23.11.2017 05:33 21,2 C 1,9 C 1,6 C 56 % 0 % 94 % 99 % 1010 hPa 0,0 l/m 0,0 km/h W-SW 240 0 min 1,6 C
23.11.2017 05:28 21,2 C 1,9 C 1,6 C 56 % 0 % 95 % 99 % 1010 hPa 0,0 l/m 0,0 km/h W-SW 240 0 min 1,6 C
23.11.2017 05:23 21,2 C 1,9 C 1,6 C 56 % 0 % 95 % 99 % 1010 hPa 0,0 l/m 0,3 km/h W-SW 240 0 min 1,6 C
23.11.2017 05:18 21,2 C 1,9 C 1,6 C 56 % 0 % 95 % 99 % 1010 hPa 0,0 l/m 0,7 km/h W-SW 240 0 min 1,6 C
23.11.2017 05:13 21,2 C 1,9 C 1,6 C 56 % 0 % 95 % 99 % 1010 hPa 0,0 l/m 0,0 km/h W-SW 240 0 min 1,6 C
23.11.2017 05:08 21,2 C 1,9 C 1,6 C 56 % 0 % 95 % 99 % 1010 hPa 0,0 l/m 0,1 km/h W-SW 240 0 min 1,6 C
23.11.2017 05:03 21,2 C 1,9 C 1,6 C 56 % 0 % 95 % 99 % 1010 hPa 0,0 l/m 0,9 km/h W-SW 240 0 min 1,6 C
23.11.2017 04:58 21,2 C 1,9 C 1,6 C 56 % 0 % 95 % 99 % 1010 hPa 0,0 l/m 0,0 km/h W-SW 240 0 min 1,6 C
23.11.2017 04:53 21,1 C 1,9 C 1,7 C 56 % 0 % 95 % 99 % 1010 hPa 0,0 l/m 0,0 km/h W-SW 240 0 min 1,7 C
23.11.2017 04:48 21,2 C 1,9 C 1,7 C 56 % 0 % 95 % 99 % 1010 hPa 0,0 l/m 4,6 km/h W-SW 240 0 min 0,5 C
23.11.2017 04:43 21,2 C 1,9 C 1,7 C 56 % 0 % 95 % 99 % 1010 hPa 0,0 l/m 0,9 km/h W-SW 240 0 min 1,7 C
23.11.2017 04:38 21,2 C 1,9 C 1,7 C 56 % 0 % 95 % 99 % 1010 hPa 0,0 l/m 0,7 km/h W-SW 240 0 min 1,7 C
23.11.2017 04:33 21,2 C 1,9 C 1,7 C 56 % 0 % 95 % 99 % 1010 hPa 0,0 l/m 3,7 km/h W-SW 240 0 min 1,7 C
23.11.2017 04:28 21,2 C 1,9 C 1,7 C 56 % 0 % 95 % 99 % 1010 hPa 0,0 l/m 0,3 km/h W-SW 240 0 min 1,7 C
23.11.2017 04:23 21,2 C 1,9 C 1,7 C 56 % 0 % 95 % 99 % 1010 hPa 0,0 l/m 0,0 km/h W-SW 240 0 min 1,7 C
23.11.2017 04:18 21,2 C 1,9 C 1,7 C 56 % 0 % 95 % 99 % 1010 hPa 0,0 l/m 0,0 km/h W-SW 240 0 min 1,7 C
23.11.2017 04:13 21,2 C 1,9 C 1,8 C 56 % 0 % 95 % 99 % 1010 hPa 0,0 l/m 0,0 km/h W-SW 240 0 min 1,8 C
23.11.2017 04:08 21,2 C 1,9 C 1,9 C 56 % 0 % 95 % 99 % 1010 hPa 0,0 l/m 0,0 km/h W-SW 240 0 min 1,9 C
23.11.2017 04:03 21,2 C 1,9 C 1,9 C 56 % 0 % 95 % 99 % 1010 hPa 0,0 l/m 0,0 km/h W-SW 240 0 min 1,9 C
23.11.2017 03:58 21,2 C 1,9 C 1,9 C 56 % 0 % 95 % 99 % 1010 hPa 0,0 l/m 0,0 km/h W-SW 240 0 min 1,9 C
23.11.2017 03:53 21,2 C 1,9 C 1,9 C 56 % 0 % 95 % 99 % 1010 hPa 0,0 l/m 0,0 km/h W-SW 240 0 min 1,9 C
23.11.2017 03:48 21,2 C 1,9 C 1,9 C 56 % 0 % 95 % 99 % 1010 hPa 0,0 l/m 0,0 km/h W-SW 240 0 min 1,9 C
23.11.2017 03:43 21,2 C 1,9 C 1,9 C 56 % 0 % 95 % 99 % 1010 hPa 0,0 l/m 3,1 km/h W-SW 240 0 min 1,9 C
23.11.2017 03:38 21,2 C 1,9 C 1,9 C 56 % 0 % 95 % 99 % 1010 hPa 0,0 l/m 1,4 km/h W-SW 240 0 min 1,9 C
23.11.2017 03:33 21,2 C 1,9 C 1,9 C 56 % 0 % 95 % 99 % 1010 hPa 0,0 l/m 0,7 km/h W-SW 240 0 min 1,9 C
23.11.2017 03:28 21,2 C 1,9 C 1,9 C 56 % 0 % 95 % 99 % 1010 hPa 0,0 l/m 0,1 km/h W-SW 240 0 min 1,9 C
23.11.2017 03:23 21,2 C 1,9 C 1,8 C 56 % 0 % 95 % 99 % 1010 hPa 0,0 l/m 0,0 km/h W-SW 240 0 min 1,8 C
23.11.2017 03:18 21,2 C 1,9 C 1,7 C 56 % 0 % 95 % 99 % 1010 hPa 0,0 l/m 0,8 km/h W-SW 240 0 min 1,7 C
23.11.2017 03:13 21,2 C 1,9 C 1,7 C 56 % 0 % 95 % 99 % 1010 hPa 0,0 l/m 0,0 km/h W-SW 240 0 min 1,7 C
23.11.2017 03:08 21,2 C 1,9 C 1,7 C 56 % 0 % 95 % 99 % 1010 hPa 0,0 l/m 0,0 km/h W-SW 240 0 min 1,7 C
23.11.2017 03:03 21,2 C 1,9 C 1,6 C 56 % 0 % 95 % 99 % 1010 hPa 0,0 l/m 0,0 km/h W-SW 240 0 min 1,6 C
23.11.2017 02:58 21,2 C 1,9 C 1,6 C 56 % 0 % 95 % 99 % 1010 hPa 0,0 l/m 0,0 km/h W-SW 240 0 min 1,6 C
23.11.2017 02:53 21,2 C 1,9 C 1,6 C 56 % 0 % 95 % 99 % 1010 hPa 0,0 l/m 0,0 km/h W-SW 240 0 min 1,6 C
23.11.2017 02:48 21,2 C 1,9 C 1,6 C 56 % 0 % 95 % 99 % 1010 hPa 0,0 l/m 0,0 km/h W-SW 240 0 min 1,6 C
23.11.2017 02:43 21,2 C 1,9 C 1,6 C 56 % 0 % 95 % 99 % 1010 hPa 0,0 l/m 0,0 km/h W-SW 240 0 min 1,6 C
23.11.2017 02:38 21,2 C 1,9 C 1,6 C 56 % 0 % 95 % 99 % 1010 hPa 0,0 l/m 0,0 km/h W-SW 240 0 min 1,6 C
23.11.2017 02:33 21,2 C 1,9 C 1,7 C 56 % 0 % 95 % 99 % 1010 hPa 0,0 l/m 0,0 km/h W-SW 240 0 min 1,7 C
23.11.2017 02:28 21,2 C 1,9 C 1,7 C 56 % 0 % 95 % 99 % 1010 hPa 0,0 l/m 0,0 km/h W-SW 240 0 min 1,7 C
23.11.2017 02:23 21,2 C 1,9 C 1,7 C 56 % 0 % 95 % 99 % 1010 hPa 0,0 l/m 0,0 km/h W-SW 240 0 min 1,7 C
23.11.2017 02:18 21,2 C 1,9 C 1,7 C 56 % 0 % 95 % 99 % 1010 hPa 0,0 l/m 0,0 km/h W-SW 240 0 min 1,7 C
23.11.2017 02:13 21,2 C 1,9 C 1,7 C 56 % 0 % 95 % 99 % 1010 hPa 0,0 l/m 0,0 km/h W-SW 240 0 min 1,7 C
23.11.2017 02:08 21,2 C 1,9 C 1,8 C 56 % 0 % 95 % 99 % 1010 hPa 0,0 l/m 0,0 km/h W-SW 240 0 min 1,8 C
23.11.2017 02:03 21,2 C 1,9 C 1,8 C 56 % 0 % 95 % 99 % 1010 hPa 0,0 l/m 0,0 km/h W-SW 240 0 min 1,8 C
23.11.2017 01:58 21,2 C 2,0 C 1,9 C 56 % 0 % 94 % 99 % 1010 hPa 0,0 l/m 0,0 km/h W-SW 240 0 min 1,9 C
23.11.2017 01:53 21,2 C 2,0 C 1,9 C 56 % 0 % 94 % 99 % 1010 hPa 0,0 l/m 0,0 km/h W-SW 240 0 min 1,9 C
23.11.2017 01:48 21,2 C 2,0 C 1,9 C 56 % 0 % 94 % 99 % 1010 hPa 0,0 l/m 0,0 km/h W-SW 240 0 min 1,9 C
23.11.2017 01:43 21,2 C 3,7 C 1,9 C 56 % 0 % 94 % 99 % 1010 hPa 0,0 l/m 0,0 km/h W-SW 240 0 min 1,9 C
23.11.2017 01:38 21,2 C 3,7 C 2,0 C 56 % 0 % 94 % 99 % 1010 hPa 0,0 l/m 0,0 km/h W-SW 240 0 min 2,0 C
23.11.2017 01:33 21,2 C 3,7 C 2,0 C 56 % 0 % 94 % 99 % 1010 hPa 0,0 l/m 2,0 km/h W-SW 240 0 min 2,0 C
23.11.2017 01:28 21,2 C 3,7 C 1,9 C 57 % 0 % 94 % 99 % 1010 hPa 0,0 l/m 0,0 km/h W-SW 240 0 min 1,9 C
23.11.2017 01:23 21,2 C 3,7 C 1,9 C 56 % 0 % 94 % 99 % 1010 hPa 0,0 l/m 0,0 km/h W-SW 240 0 min 1,9 C
23.11.2017 01:18 21,2 C 3,7 C 1,9 C 57 % 0 % 94 % 99 % 1010 hPa 0,0 l/m 0,0 km/h W-SW 240 0 min 1,9 C
23.11.2017 01:13 21,2 C 3,7 C 1,9 C 57 % 0 % 94 % 99 % 1010 hPa 0,0 l/m 0,0 km/h W-SW 240 0 min 1,9 C
23.11.2017 01:08 21,2 C 3,7 C 1,9 C 57 % 0 % 94 % 99 % 1010 hPa 0,0 l/m 0,0 km/h W-SW 240 0 min 1,9 C
23.11.2017 01:03 21,2 C 3,7 C 1,9 C 57 % 0 % 94 % 99 % 1010 hPa 0,0 l/m 0,0 km/h W-SW 240 0 min 1,9 C
23.11.2017 00:58 21,2 C 3,7 C 1,9 C 57 % 0 % 94 % 99 % 1010 hPa 0,0 l/m 0,0 km/h W-SW 240 0 min 1,9 C
23.11.2017 00:54 21,2 C 3,7 C 2,0 C 57 % 0 % 94 % 99 % 1010 hPa 0,0 l/m 0,0 km/h W-SW 240 0 min 2,0 C
23.11.2017 00:48 21,2 C 3,7 C 2,1 C 57 % 0 % 94 % 99 % 1010 hPa 0,0 l/m 0,0 km/h W-SW 240 0 min 2,1 C
23.11.2017 00:43 21,2 C 3,7 C 2,1 C 56 % 0 % 94 % 99 % 1010 hPa 0,0 l/m 0,0 km/h W-SW 240 0 min 2,1 C
23.11.2017 00:38 21,2 C 3,7 C 2,2 C 56 % 0 % 94 % 99 % 1010 hPa 0,0 l/m 0,0 km/h W-SW 240 0 min 2,2 C
23.11.2017 00:33 21,2 C 3,7 C 2,3 C 56 % 0 % 94 % 99 % 1010 hPa 0,0 l/m 0,0 km/h W-SW 240 0 min 2,3 C
23.11.2017 00:28 21,2 C 3,7 C 2,4 C 56 % 0 % 94 % 99 % 1010 hPa 0,0 l/m 0,0 km/h W-SW 240 0 min 2,4 C
23.11.2017 00:23 21,2 C 3,7 C 2,5 C 56 % 0 % 94 % 99 % 1010 hPa 0,0 l/m 0,0 km/h W-SW 240 0 min 2,5 C
23.11.2017 00:18 21,2 C 3,7 C 2,6 C 56 % 0 % 94 % 99 % 1010 hPa 0,0 l/m 0,0 km/h W-SW 240 0 min 2,6 C
23.11.2017 00:13 21,2 C 3,7 C 2,7 C 56 % 0 % 94 % 99 % 1010 hPa 0,0 l/m 0,0 km/h W-SW 240 0 min 2,7 C
23.11.2017 00:08 21,2 C 3,7 C 2,7 C 56 % 0 % 94 % 99 % 1010 hPa 0,0 l/m 0,0 km/h W-SW 240 0 min 2,7 C
23.11.2017 00:03 21,2 C 3,7 C 3,0 C 56 % 0 % 94 % 99 % 1010 hPa 0,0 l/m 0,0 km/h W-SW 240 0 min 3,0 C
_ Min-Zeit 17:28 05:53 05:53 12:18 - 15:08 15:04 00:03 - 00:03 - - - 06:43
Minimum _ 19,8 C 1,8 C 1,4 C 53 % - 86 % 71 % 1010 hPa - 0,0 km/h - - - -1,3 C
_ Max-Zeit 00:03 15:04 15:04 00:48 12:23 02:03 00:03 17:53 00:03 12:48 - - 12:13 15:04
Maximum _ 21,2 C 12,2 C 14,8 C 57 % 85 % 95 % 99 % 1013 hPa 0,0 l/m 21,0 km/h
S-SO
- - 5 min 14,8 C
Durchschnitt _ 20,5 C 6,0 C 6,7 C 55 % #1:20 h 92 % 92 % 1010 hPa #0,0 l/m 5,1 km/h W-SW - #1:20 h 6,3 C